Location: Remedello Sotto
(45.2500°N, 10.3667°E)
Time: 11:23:01
(UTC+00:00)

ATLAS 2AS CENTAUR R/B - Pass Details

Date: 03 February 2023
Orbit: 986 x 1226 km, 63.7° (Epoch: 30 March)

Event Time Altitude Azimuth Distance (km) Brightness Sun altitude
Rises 18:23:49 0° 318° (NW) 3,945 6.2 -20.6°
Reaches altitude 10° 18:26:40 10° 313° (NW) 2,946 5.6 -21.1°
Maximum altitude 18:33:10 45° 244° (WSW) 1,396 3.7 -22.2°
Drops below altitude 10° 18:39:20 10° 173° (S) 2,786 4.8 -23.3°
Sets 18:41:58 0° 167° (SSE) 3,712 5.4 -23.8°
